Location: Milton
(43.5183°N, 79.8775°W)
Time: 03:27:14
(UTC+00:00)

CUTE 1.7 + AOD 2 - Visible Passes

Search period start: 29 March 2023 00:00
Search period end: 08 April 2023 00:00
Orbit: 584 x 602 km, 97.7° (Epoch: 28 March)

Date Brightness Start Highest point End Pass type
(mag) Time Alt. Az. Time Alt. Az. Time Alt. Az.
29 Mar ? 08:14:22 10° NE 08:17:55 26° E 08:18:29 25° ESE visible
29 Mar ? 09:49:50 10° N 09:53:27 28° WNW 09:55:06 22° WSW visible
30 Mar ? 08:23:07 10° NNE 08:26:55 32° E 08:27:41 30° ESE visible
30 Mar ? 09:58:59 10° NNW 10:02:21 23° WNW 10:04:18 17° WSW visible
31 Mar ? 08:31:55 10° NNE 08:35:55 40° E 08:36:53 34° SE visible
31 Mar ? 10:08:12 10° NNW 10:11:12 19° WNW 10:13:30 13° WSW visible
01 Apr ? 08:40:45 10° NNE 08:44:51 50° E 08:46:03 38° SSE visible
01 Apr ? 10:17:28 10° NNW 10:20:02 16° WNW 10:22:36 10° WSW visible
02 Apr ? 08:49:35 10° NNE 08:53:47 64° E 08:55:13 39° SSE visible
02 Apr ? 10:26:53 10° NW 10:28:51 13° WNW 10:30:49 10° W visible
03 Apr ? 08:58:27 10° NNE 09:02:42 81° ESE 09:04:21 36° S visible
04 Apr ? 09:07:20 10° N 09:11:35 81° WNW 09:13:28 32° SSW visible
05 Apr ? 07:42:56 10° ENE 07:44:26 12° E 07:45:57 10° ESE visible
05 Apr ? 09:16:14 10° N 09:20:26 64° WNW 09:22:35 27° SSW visible
06 Apr ? 07:51:01 10° ENE 07:53:24 15° E 07:55:04 12° ESE visible
06 Apr ? 09:25:09 10° N 09:29:16 51° WNW 09:31:40 23° SW visible
07 Apr ? 07:59:23 10° NE 08:02:19 18° E 08:04:08 14° ESE visible
07 Apr ? 09:34:05 10° N 09:38:04 41° WNW 09:40:45 18° SW visible
